Zurück zum Katalog

KUIPER-00112

AktivKommunikationLEO
NORAD 65150·PAYLOAD·🇺🇸 United States

Gestartet Aug 11, 2025 von Cape Canaveral Space Force Station

Loading…

Nächste Überflüge (nächste 24 Stunden)

TLE

AktuellSource: CelesTrak SupGP

Epoche: Sep 14, 2026, 21:48 UTC

1 65150C 25171U   26257.90879630  .00007366  00000+0  96439-3 0  2579
2 65150  51.9021  38.9049 0000602 115.4810 118.3682 14.79919479    18

Verfolge KUIPER-00112 in Echtzeit mit AllMySat

Download on the App Store